COSMOS 1275 DEB

Satellite information

Favourite Embed

Satellite Type and Status

DEBRISIN ORBIT

Key statistics

Satellite COSMOS 1275 DEB at a glance.

Uptime

16044

Days in orbit

Revolutions

≈ 14.0

Per day

Orbit

LEO

Low Earth Orbit

Inclination

82.8

Latest

Satellite identification and parameters

Extended collection of information and parameters for COSMOS 1275 DEB.

Object identification

Identified? True

Debris? True

Object name: COSMOS 1275 DEB

International designator: 1981-053KS

Object number (NORAD): 17623

Object ID (CCSDS): 17623

Country: COMMONWEALTH OF INDEPENDENT STATES (CIS)

Current information (Y/N): Y

RCS size: SMALL

Orbital parameters

Period: 103.083 minutes

Inclination: 82.8058 deg

SMA: 7282.584 km

Apoapsis: 943.326 km

Periapsis: 865.571 km

RAAN: 187.4645 deg

Eccentricy: 0.0053384

Argument of periapsis: 251.4112 deg

Mean anomaly: 290.4607 deg

Mean motion: 13.96929617 rev/day

Mean motion (dot): 0.00001691 rev/day2

B* drag term: 0.0011899 1/REarth

Two-line elements (TLE)

Creation date: May 6, 2025, 6:46 a.m.

Reference frame: TEME

Reference center: EARTH

Epoch: May 5, 2025, 10:17 p.m. UTC

TLE line 0: 0 COSMOS 1275 DEB

TLE line 1: 1 17623U 81053KS 25125.92878809 .00001691 00000-0 11899-2 0 9999

TLE line 2: 2 17623 82.8058 187.4645 0053384 251.4112 290.4607 13.96929617 22742

Live tracking on map

Real-time ground track for satellite COSMOS 1275 DEB.

In-orbit conjunctions

A list of the most updated potential collisions computed for object COSMOS 1275 DEB.

Target Orbit TCA Probability of collision Miss distance Type
LANDSAT 3 SSO 2025-03-26 14:56:10 0.001152671 133.0 (m) PAYLOAD
FENGYUN 1C DEB SSO 2024-11-16 10:41:37 0.0002660581 650.0 (m) DEBRIS

Associated space launch

Navigation satellite providing location information for the Tsiklon-B navigation system

COSMOS 1275 DEB was lifted into orbit during the mission ‘Kosmos-3M | Parus 27’, on board a Kosmos-3M space rocket.

The launch took place on June 4, 1981, 3:41 p.m. from 132/2.

For more information about the launch, click the button.

Launch to space Kosmos-3M | Parus 27
Kosmos-3M | Parus 27

Agency: N/A

Status: Launch Successful

Launch date: June 4, 1981, 3:41 p.m. UTC

Rocket: Kosmos-3M

Launch pad: 132/2

Location: Plesetsk Cosmodrome, Russian Federation

...

Latest news about this satellite

There are no fresh news available about this satellite. Check back as we update our databases every day.


Newsletter sign-up

Weekly statistics, charts and insights to help you stay on top of the space industry.